User: anonymous   Login
Location: Unspecified
(0.0000°N, 0.0000°E)
Time: 06:48:24
(UTC+00:00)
Language:

NNS O-2 - Orbit

View from above orbital plane
View from above orbital plane
View from above satellite
View from above satellite

Ground track
Ground track

The orbit data is extracted from the following two-line orbital elements,

1 00965U 64083D   22225.93580271  .00000015  00000-0  76293-5 0  9997
2 00965  90.0275 195.5992 0042972  62.3158 351.4933 13.56784544853319
Epoch (UTC): 13 August 2022 22:27:33
Eccentricity: 0.0042972
inclination: 90.0275°
perigee height: 1015 km
apogee height: 1079 km
right ascension of ascending node: 195.5992°
argument of perigee: 62.3158°
revolutions per day: 13.56784544
mean anomaly at epoch: 351.4933°
orbit number at epoch: 85331

The dashed part of the orbit path shows where the satellite is in the earth's shadow,  

DLR